Regional Weather Roundup
Issued by NWS

Home | Current Version | Previous Version | Graphics & Text | Print | Product List | Glossary On
Versions: 1 2 3 4 5 6 7 8 9 10 11 12 13 14 15 16 17 18 19 20 21 22 23 24 25 26 27 28 29 30 31 32 33 34 35 36 37 38 39 40 41 42 43 44 45 46 47 48 49 50
000
ASUS45 KBOU 270307
RWRCO

WEATHER ROUNDUP FOR COLORADO
NATIONAL WEATHER SERVICE DENVER/BOULDER CO
900 PM MDT SUN MAR 26 2017

NOTE: "FAIR" INDICATES FEW OR NO CLOUDS BELOW 12000 FEET WITH NO
SIGNIFICANT WEATHER AND/OR OBSTRUCTIONS TO VISIBILITY.

COZ001>005-013-030-031-270400-
...NORTHWEST COLORADO...

CITY           SKY/WX    TMP DP  RH WIND       PRES   REMARKS
CRAIG          FAIR      37  24  59 CALM      29.97S
HAYDEN         FAIR      39  25  56 CALM      29.98S
MEEKER         FAIR      40  25  55 CALM      29.96S
MOUNT WERNER   NOT AVBL
STEAMBOAT SPGS FAIR      37  30  77 E5        29.99S
WALDEN         NOT AVBL
$$

COZ006>008-011-270400-
...WEST CENTRAL VALLEYS...

CITY           SKY/WX    TMP DP  RH WIND       PRES   REMARKS
GRAND JUNCTION FAIR      51  26  37 NW7       29.93S
MONTROSE       FAIR      47  35  63 SE8       29.99S
EAGLE          CLOUDY    45  23  42 CALM      30.00R
RIFLE          FAIR      47  27  45 SE5       29.95R
DELTA          FAIR      55  33  43 S3        29.96R
NUCLA          FAIR      50  23  34 CALM      30.01S
$$

COZ017>023-064>068-270400-
...SOUTHWEST COLORADO...

CITY           SKY/WX    TMP DP  RH WIND       PRES   REMARKS
DURANGO        FAIR      47  27  45 SW10      30.00R
CORTEZ         FAIR      47  32  56 CALM      30.00S
PAGOSA SPRINGS FAIR      41  37  84 CALM      30.05R
TELLURIDE      FAIR      36  28  74 E8        30.09F
WOLF CREEK PAS CLOUDY    27  27 100 S12G18    30.18R FOG     WCI  16
$$

COZ009-010-012-014-032>034-037-058>063-270400-
...CENTRAL COLORADO...

CITY           SKY/WX    TMP DP  RH WIND       PRES   REMARKS
ASPEN          MOCLDY    39  27  62 SW5       30.01R
BUENA VISTA    FAIR      42  18  37 W10       30.00R
COPPER MTN     NOT AVBL
BERTHOUD PASS  CLOUDY    19   9  63 NW17G26   30.08R WCI   4
COTTONWOOD PAS FAIR      37  18  44 SW15G25   30.04R
GUNNISON       FAIR      38  27  64 N6        30.03R
KREMMLING      MOCLDY    43  28  56 CALM      30.02R
LEADVILLE      FAIR      28  19  69 CALM      30.04R
MONARCH PASS   FAIR      23  21  93 SW17      30.22R WCI   9
SALIDA         FAIR      44  32  63 SE12G17   30.07R
SUNLIGHT       FAIR      27  21  80 SW8G16    30.11S WCI  18
WILKERSON PASS FOG       28  27  93 CALM      30.10S VSB 1/4
$$

COZ069>075-270400-
...SAN LUIS VALLEY/SANGRE DE CRISTO MOUNTAINS...

CITY           SKY/WX    TMP DP  RH WIND       PRES   REMARKS
ALAMOSA        FAIR      44  34  67 N6G18     29.99R
LA VETA PASS   NOT AVBL
SAGUACHE       FAIR      41  23  48 NW21      30.01R
$$

COZ035-036-038>040-270400-
...NORTHERN COLORADO FRONT RANGE...

CITY           SKY/WX    TMP DP  RH WIND       PRES   REMARKS
DENVER INTL AP MOCLDY    45  35  68 N6        29.98R
DMNS CITY PARK   N/A     45  37  74 E2        29.98S
AURORA         MOCLDY    45  36  69 NE5       29.99R
FRONT RANGE AP MOCLDY    46  39  76 N6        29.99R
ERIE MUNI ARPT FAIR      43  40  88 CALM      29.98R
BOULDER MUN AP CLOUDY    45  41  87 CALM      29.97R
CENTENNIAL     CLOUDY    46  36  68 NW6       29.99R
BROOMFIELD     MOCLDY    45  39  81 CALM      29.99R
FORT COLLINS   FAIR      45  40  82 CALM      29.98R
LONGMONT       CLOUDY    46  42  86 CALM      29.99R
$$

COZ041-046-047-076>085-087-088-270400-
...PIKES PEAK/PALMER DIVIDE AND SOUTHERN FOOTHILLS...

CITY           SKY/WX    TMP DP  RH WIND       PRES   REMARKS
COLO. SPRINGS  CLOUDY    44  37  76 SW3       30.01R
A. F. ACADEMY  CLOUDY    43  36  75 N3        30.00R
SCHRIEVER AFB  FAIR      42  37  83 NW3       30.01R
ELLICOTT         N/A    N/A N/A N/A CALM      29.99R
FALCON         DRIZZLE   41  33  72 W5        30.02S
FORT CARSON    CLOUDY    45  38  78 SW8       29.99R
LIMON          FAIR      36  33  89 CALM      29.99R
MONUMENT HILL  MOCLDY    36  32  87 NE6       30.01S
TRINIDAD       FAIR      42  37  82 S3        30.01R
$$

COZ042>045-048>051-090-091-270400-
...NORTHEAST COLORADO...

CITY           SKY/WX    TMP DP  RH WIND       PRES   REMARKS
GREELEY ARPT   FAIR      42  33  70 NE3       29.98R
AKRON          FAIR      40  35  83 NW10      29.96R
BURLINGTON     FAIR      39  37  92 S7        29.95R
WRAY           NOT AVBL
STERLING       NOT AVBL
HOLYOKE        FAIR      43  37  81 W3        29.94R
FORT MORGAN    FAIR      40  33  77 N10       29.97R
$$

COZ086-089-092>099-270400-
...SOUTHEAST COLORADO...

CITY           SKY/WX    TMP DP  RH WIND       PRES   REMARKS
PUEBLO         CLOUDY    49  40  71 SE6       29.98R
LA JUNTA       FAIR      44  38  79 S6        29.98R
LAMAR          FAIR      33  30  88 SW8       29.96R WCI  26
SPRINGFIELD      N/A     42  37  82 N10       29.98R
$$



USA.gov is the U.S. government's official web portal to all federal, state and local government web resources and services.